When you browse on this site, cookies collect data to enhance your experience and personalize the content and advertising you see.
Visit our Privacy Policy to learn more. By continuing to use the site, you agree to this use of cookies and data.
  • în România
  • Lista ţărilor
  • Pe 7 zile
  • Temperatura apei
  • Hartă satelitară
  • Meteo pe hartă
  • Widget-uri
  • user-avatar
    Intrare

    Meteo pe oră la Mochalino

    Astăzi, 20 Februarie, Miercuri

    Timp Temperatura Precipitaţii Vânt Presiune Umiditate
    00:00 0°C° 0 mm 5 m/s 735 mmHg 91%
    01:00 0°C° 0 mm 4 m/s 735 mmHg 91%
    02:00 0°C° 0 mm 5 m/s 734 mmHg 92%
    03:00 0°C° 0.1 mm 5 m/s 734 mmHg 92%
    04:00 0°C° 0.1 mm 4 m/s 734 mmHg 92%
    05:00 0°C° 0.1 mm 4 m/s 734 mmHg 92%
    06:00 0°C° 0 mm 4 m/s 733 mmHg 92%
    07:00 0°C° 0 mm 4 m/s 733 mmHg 91%
    08:00 0°C° 0 mm 4 m/s 733 mmHg 91%
    09:00 0°C° 0.1 mm 4 m/s 733 mmHg 90%
    10:00 0°C° 0.1 mm 5 m/s 733 mmHg 89%
    11:00 0°C° 0.1 mm 5 m/s 733 mmHg 88%
    12:00 0°C° 0.2 mm 5 m/s 732 mmHg 88%
    13:00 +1°C° 0.2 mm 5 m/s 732 mmHg 87%
    14:00 +1°C° 0.2 mm 5 m/s 732 mmHg 87%
    15:00 +1°C° 0.3 mm 5 m/s 732 mmHg 87%
    16:00 0°C° 0.3 mm 5 m/s 731 mmHg 86%
    17:00 0°C° 0.3 mm 5 m/s 731 mmHg 86%
    18:00 0°C° 0.3 mm 5 m/s 731 mmHg 83%
    19:00 -1°C° 0.3 mm 5 m/s 731 mmHg 80%
    20:00 -2°C° 0.3 mm 6 m/s 731 mmHg 77%
    21:00 -2°C° 0.1 mm 5 m/s 732 mmHg 78%
    22:00 -5°C° 0.1 mm 5 m/s 732 mmHg 79%
    23:00 -6°C° 0.1 mm 5 m/s 733 mmHg 81%

    Mâine, 21 Februarie, Joi

    Timp Temperatura Precipitaţii Vânt Presiune Umiditate
    00:00 -6°C° 0.2 mm 5 m/s 733 mmHg 78%
    01:00 -8°C° 0.2 mm 6 m/s 734 mmHg 75%
    02:00 -8°C° 0.2 mm 6 m/s 734 mmHg 72%
    03:00 -8°C° 0.1 mm 6 m/s 735 mmHg 72%
    04:00 -9°C° 0.1 mm 6 m/s 735 mmHg 72%
    05:00 -9°C° 0.1 mm 6 m/s 735 mmHg 72%
    06:00 -9°C° 0.1 mm 7 m/s 736 mmHg 74%
    07:00 -9°C° 0.1 mm 7 m/s 736 mmHg 76%
    08:00 -9°C° 0.1 mm 7 m/s 737 mmHg 78%
    09:00 -9°C° 0.1 mm 7 m/s 737 mmHg 75%
    10:00 -8°C° 0.1 mm 7 m/s 738 mmHg 72%
    11:00 -8°C° 0.1 mm 6 m/s 739 mmHg 69%
    12:00 -8°C° 0.1 mm 6 m/s 739 mmHg 69%
    13:00 -8°C° 0.1 mm 6 m/s 740 mmHg 68%
    14:00 -8°C° 0.1 mm 6 m/s 741 mmHg 67%
    15:00 -8°C° 0 mm 6 m/s 742 mmHg 68%
    16:00 -9°C° 0 mm 6 m/s 742 mmHg 68%
    17:00 -10°C° 0 mm 6 m/s 743 mmHg 69%
    18:00 -10°C° 0 mm 5 m/s 744 mmHg 69%
    19:00 -11°C° 0 mm 5 m/s 744 mmHg 70%
    20:00 -11°C° 0 mm 5 m/s 745 mmHg 70%
    21:00 -12°C° 0 mm 5 m/s 745 mmHg 70%
    22:00 -12°C° 0 mm 5 m/s 746 mmHg 70%
    23:00 -12°C° 0 mm 5 m/s 746 mmHg 70%

    Poimâine, 22 Februarie, Vineri

    Timp Temperatura Precipitaţii Vânt Presiune Umiditate
    00:00 -12°C° 0 mm 4 m/s 747 mmHg 71%
    01:00 -12°C° 0 mm 4 m/s 747 mmHg 72%
    02:00 -12°C° 0 mm 4 m/s 748 mmHg 73%
    03:00 -14°C° 0 mm 4 m/s 748 mmHg 73%
    04:00 -14°C° 0 mm 4 m/s 749 mmHg 73%
    05:00 -14°C° 0 mm 5 m/s 749 mmHg 73%
    06:00 -14°C° 0 mm 5 m/s 750 mmHg 73%
    07:00 -14°C° 0 mm 5 m/s 750 mmHg 72%
    08:00 -14°C° 0 mm 5 m/s 751 mmHg 72%
    09:00 -14°C° 0 mm 6 m/s 751 mmHg 69%
    10:00 -12°C° 0 mm 6 m/s 751 mmHg 66%
    11:00 -12°C° 0 mm 6 m/s 751 mmHg 63%
    12:00 -11°C° 0 mm 6 m/s 752 mmHg 60%
    13:00 -12°C° 0 mm 7 m/s 752 mmHg 57%
    14:00 -11°C° 0 mm 7 m/s 752 mmHg 54%
    15:00 -11°C° 0 mm 6 m/s 752 mmHg 58%
    16:00 -11°C° 0 mm 6 m/s 753 mmHg 62%
    17:00 -11°C° 0 mm 6 m/s 753 mmHg 65%
    18:00 -12°C° 0 mm 6 m/s 754 mmHg 67%
    19:00 -12°C° 0 mm 5 m/s 754 mmHg 68%
    20:00 -12°C° 0 mm 5 m/s 755 mmHg 69%
    21:00 -13°C° 0 mm 5 m/s 755 mmHg 71%
    22:00 -13°C° 0 mm 5 m/s 755 mmHg 72%
    23:00 -14°C° 0 mm 4 m/s 756 mmHg 74%

    23 Februarie, Sâmbătă

    Timp Temperatura Precipitaţii Vânt Presiune Umiditate
    00:00 -14°C° 0 mm 4 m/s 756 mmHg 76%
    01:00 -14°C° 0 mm 4 m/s 757 mmHg 77%
    02:00 -15°C° 0 mm 4 m/s 757 mmHg 79%
    03:00 -15°C° 0 mm 4 m/s 757 mmHg 80%
    04:00 -15°C° 0 mm 4 m/s 757 mmHg 81%
    05:00 -14°C° 0 mm 3 m/s 758 mmHg 83%
    06:00 -14°C° 0 mm 3 m/s 758 mmHg 83%
    07:00 -14°C° 0 mm 3 m/s 758 mmHg 83%
    08:00 -15°C° 0 mm 3 m/s 759 mmHg 83%
    09:00 -13°C° 0 mm 3 m/s 759 mmHg 77%
    10:00 -12°C° 0 mm 3 m/s 759 mmHg 72%
    11:00 -10°C° 0 mm 3 m/s 759 mmHg 66%
    12:00 -10°C° 0 mm 3 m/s 759 mmHg 65%
    13:00 -9°C° 0 mm 3 m/s 758 mmHg 63%
    14:00 -8°C° 0 mm 3 m/s 758 mmHg 62%
    15:00 -9°C° 0 mm 3 m/s 758 mmHg 64%
    16:00 -8°C° 0 mm 2 m/s 758 mmHg 66%
    17:00 -8°C° 0 mm 2 m/s 758 mmHg 68%
    18:00 -8°C° 0 mm 2 m/s 758 mmHg 70%
    19:00 -8°C° 0 mm 2 m/s 758 mmHg 71%
    20:00 -7°C° 0 mm 1 m/s 757 mmHg 73%
    21:00 -8°C° 0 mm 2 m/s 757 mmHg 77%
    22:00 -8°C° 0 mm 2 m/s 757 mmHg 80%
    23:00 -8°C° 0 mm 2 m/s 756 mmHg 84%

    24 Februarie, Duminică

    Timp Temperatura Precipitaţii Vânt Presiune Umiditate
    00:00 -8°C° 0.1 mm 2 m/s 756 mmHg 86%
    01:00 -7°C° 0.1 mm 2 m/s 756 mmHg 87%
    02:00 -7°C° 0.1 mm 2 m/s 756 mmHg 89%
    03:00 -7°C° 0.2 mm 2 m/s 755 mmHg 90%
    04:00 -7°C° 0.2 mm 2 m/s 755 mmHg 92%
    05:00 -7°C° 0.2 mm 2 m/s 755 mmHg 93%
    06:00 -6°C° 0.1 mm 2 m/s 755 mmHg 93%
    07:00 -4°C° 0.1 mm 1 m/s 755 mmHg 93%
    08:00 -4°C° 0.1 mm 1 m/s 755 mmHg 93%
    09:00 -3°C° 0 mm 1 m/s 755 mmHg 91%
    10:00 -2°C° 0 mm 1 m/s 755 mmHg 88%
    11:00 -2°C° 0 mm 0 m/s 755 mmHg 85%
    12:00 -1°C° 0 mm 0 m/s 755 mmHg 85%
    13:00 -1°C° 0 mm 0 m/s 755 mmHg 85%
    14:00 -1°C° 0 mm 0 m/s 755 mmHg 85%
    15:00 0°C° 0 mm 1 m/s 755 mmHg 88%
    16:00 0°C° 0 mm 1 m/s 755 mmHg 91%
    17:00 0°C° 0 mm 1 m/s 755 mmHg 94%
    18:00 -1°C° 0 mm 1 m/s 755 mmHg 95%
    19:00 -2°C° 0 mm 1 m/s 755 mmHg 96%
    20:00 -2°C° 0 mm 1 m/s 755 mmHg 96%
    21:00 -2°C° 0 mm 1 m/s 755 mmHg 97%
    22:00 -2°C° 0 mm 1 m/s 755 mmHg 97%
    23:00 -1°C° 0 mm 1 m/s 755 mmHg 97%

    25 Februarie, Luni

    Timp Temperatura Precipitaţii Vânt Presiune Umiditate
    00:00 -1°C° 0 mm 1 m/s 755 mmHg 96%
    01:00 -1°C° 0 mm 1 m/s 755 mmHg 96%
    02:00 -1°C° 0 mm 1 m/s 754 mmHg 95%
    03:00 -3°C° 0 mm 2 m/s 754 mmHg 95%
    04:00 -3°C° 0 mm 2 m/s 753 mmHg 94%
    05:00 -3°C° 0 mm 2 m/s 753 mmHg 94%
    06:00 -3°C° 0 mm 2 m/s 752 mmHg 94%
    07:00 -4°C° 0 mm 3 m/s 752 mmHg 94%
    08:00 -2°C° 0 mm 3 m/s 752 mmHg 94%
    09:00 -2°C° 0.1 mm 3 m/s 751 mmHg 94%
    10:00 -1°C° 0.1 mm 3 m/s 751 mmHg 93%
    11:00 -1°C° 0.1 mm 3 m/s 751 mmHg 93%
    12:00 0°C° 0 mm 3 m/s 750 mmHg 90%
    13:00 0°C° 0 mm 3 m/s 750 mmHg 87%
    14:00 0°C° 0 mm 3 m/s 750 mmHg 85%
    15:00 0°C° 0.1 mm 3 m/s 750 mmHg 86%
    16:00 -1°C° 0.1 mm 3 m/s 749 mmHg 86%
    17:00 -1°C° 0.1 mm 3 m/s 749 mmHg 87%
    18:00 -1°C° 0 mm 3 m/s 749 mmHg 87%
    19:00 -1°C° 0 mm 3 m/s 749 mmHg 87%
    20:00 -2°C° 0 mm 3 m/s 749 mmHg 87%
    21:00 -2°C° 0 mm 2 m/s 749 mmHg 89%
    22:00 -3°C° 0 mm 2 m/s 749 mmHg 91%
    23:00 -3°C° 0 mm 2 m/s 749 mmHg 93%
    Arată mai mult